Terug naar catalogus

FENGYUN 1C DEB

ActiefSSO
NORAD 30730·DEBRIS·🇨🇳 China

Gelanceerd May 10, 1999 vanaf Taiyuan Satellite Launch Center

Loading…

Volgende Passages (komende 24 uur)

TLE

VersSource: Space-Track

Epoch: Sep 14, 2026, 08:32 UTC

1 30730U 99025ASQ 26257.35567426  .00001121  00000-0  46882-3 0  9994
2 30730  98.5957 296.6343 0075553 325.2550  97.2500 14.26539636  9241

Volg FENGYUN 1C DEB in realtime met AllMySat

Download on the App Store